{"data":{"norad_id":54191,"epoch":"2026-05-25T01:24:31.076928Z","epoch_age_seconds":80132,"freshness":"FRESH","line1":"1 54191U 22141AL  26145.05869302 -.00000048  00000+0  15078-4 0  9998","line2":"2 54191  53.2144  11.5224 0001383  84.6921 275.4229 15.08819553197521","mean_motion":15.08819553,"eccentricity":0.0001383,"inclination_deg":53.2144,"raan_deg":11.5224,"arg_perigee_deg":84.6921,"mean_anomaly_deg":275.4229,"bstar":1.5078e-5,"rev_number":19752,"period_min":95.438848014452,"perigee_km":538.84913646755,"apogee_km":540.76263947036,"semimajor_km":6917.942887969,"source":"CELESTRAK","updated_at":"2026-05-25T13:38:17.683378Z"}}